Tacoma Narrows, WA
on Monday, December 24, 2012

Monday
Previous Day Next Day
Daily Summary
 ActualAverageRecord
Temperature
Mean Temperature °F °F  
Max Temperature 42°F 43°F 57°F (2005)
Min Temperature 37°F 36°F 28°F (2001)
Degree Days
Heating Degree Days 26    
Moisture
Dew Point 37°F   
Average Humidity 87    
Maximum Humidity 93    
Minimum Humidity 70    
Precipitation
Precipitation 0.02 in in in ()
Wind
Wind Speed 6 mph   
Max Wind Speed 12 mph   
Max Gust Speed mph   
Visibility 10 miles   
Events Rain   
Averages and records for this station are not official NWS values.
Key: T is trace of precipitation, MM is missing value
Source: NWS Daily Summary
Seasonal Weather Averages
Time(PST)TemperatureDew PointHumidity Pressure Visibility Wind DirectionWind SpeedGust SpeedPrecipitationEvents Conditions
12:00 AM 39.2°F 35.6°F 87% 29.82 in 10.0 miles South 9.2 mph - N/A   Overcast
12:07 AM 39.2°F 35.6°F 87% 29.83 in 10.0 miles SSW 10.4 mph - N/A   Overcast
12:14 AM 39.2°F 35.6°F 87% 29.83 in 10.0 miles SSW 11.5 mph - N/A   Overcast
12:53 AM 39.9°F 36.0°F 86% 29.86 in 10.0 miles SSW 11.5 mph - N/A   Overcast
1:53 AM 39.9°F 36.0°F 86% 29.88 in 10.0 miles SSW 8.1 mph - N/A   Overcast
2:35 AM 39.2°F 35.6°F 87% 29.90 in 10.0 miles SSW 6.9 mph - N/A   Overcast
2:53 AM 39.9°F 36.0°F 86% 29.91 in 10.0 miles SSW 8.1 mph - N/A   Overcast
3:02 AM 39.2°F 37.4°F 93% 29.91 in 10.0 miles South 8.1 mph - N/A   Overcast
3:25 AM 39.2°F 37.4°F 93% 29.92 in 10.0 miles South 8.1 mph - N/A   Overcast
3:53 AM 39.9°F 37.0°F 89% 29.94 in 10.0 miles South 6.9 mph - N/A   Overcast
4:33 AM 39.2°F 37.4°F 93% 29.95 in 10.0 miles South 4.6 mph - N/A   Overcast
4:48 AM 39.2°F 37.4°F 93% 29.96 in 10.0 miles South 6.9 mph - N/A   Overcast
4:53 AM 39.9°F 36.0°F 86% 29.97 in 10.0 miles SSW 6.9 mph - N/A   Overcast
5:51 AM 39.2°F 37.4°F 93% 29.99 in 10.0 miles South 4.6 mph - N/A   Overcast
5:53 AM 39.9°F 37.0°F 89% 30.00 in 10.0 miles SSW 5.8 mph - N/A   Overcast
6:34 AM 39.2°F 37.4°F 93% 30.01 in 10.0 miles SSW 4.6 mph - N/A   Overcast
6:53 AM 39.0°F 37.0°F 93% 30.03 in 10.0 miles Calm Calm - N/A   Overcast
7:14 AM 39.2°F 35.6°F 87% 30.03 in 10.0 miles NNW 4.6 mph - N/A   Overcast
7:53 AM 37.9°F 36.0°F 93% 30.06 in 10.0 miles Calm Calm - N/A   Overcast
8:01 AM 39.2°F 35.6°F 87% 30.05 in 10.0 miles Calm Calm - N/A   Overcast
8:53 AM 39.9°F 37.0°F 89% 30.09 in 10.0 miles Calm Calm - N/A   Mostly Cloudy
9:53 AM 39.0°F 36.0°F 89% 30.13 in 10.0 miles WSW 3.5 mph - N/A   Overcast
10:53 AM 37.9°F 35.1°F 89% 30.15 in 10.0 miles WSW 6.9 mph - N/A   Overcast
11:53 AM 39.9°F 36.0°F 86% 30.15 in 10.0 miles SW 4.6 mph - N/A   Overcast
12:53 PM 39.9°F 37.9°F 93% 30.16 in 8.0 miles Calm Calm - 0.00 in   Overcast
1:36 PM 42.8°F 39.2°F 87% 30.15 in 10.0 miles South 4.6 mph - 0.00 in   Overcast
1:53 PM 42.1°F 39.0°F 89% 30.17 in 10.0 miles SSW 6.9 mph - 0.00 in   Overcast
2:53 PM 42.1°F 37.9°F 85% 30.17 in 9.0 miles South 10.4 mph - N/A   Overcast
3:53 PM 42.1°F 39.0°F 89% 30.17 in 6.0 miles SSW 4.6 mph - 0.01 in Rain Light Rain
4:00 PM 42.8°F 39.2°F 87% 30.16 in 6.0 miles South 4.6 mph - 0.00 in Rain Light Rain
4:18 PM 42.8°F 39.2°F 87% 30.16 in 10.0 miles South 3.5 mph - 0.01 in Rain Light Rain
4:23 PM 42.8°F 39.2°F 87% 30.16 in 10.0 miles SSW 3.5 mph - 0.01 in Rain Light Rain
4:53 PM 42.1°F 37.9°F 85% 30.17 in 10.0 miles South 3.5 mph - 0.01 in Rain Light Rain
5:53 PM 42.1°F 37.9°F 85% 30.16 in 10.0 miles ESE 3.5 mph - 0.00 in   Overcast
6:53 PM 39.9°F 36.0°F 86% 30.14 in 10.0 miles South 3.5 mph - N/A   Overcast
7:00 PM 39.2°F 35.6°F 87% 30.13 in 10.0 miles Calm Calm - N/A   Mostly Cloudy
7:53 PM 41.0°F 36.0°F 82% 30.12 in 10.0 miles Calm Calm - N/A   Scattered Clouds
8:53 PM 41.0°F 33.1°F 73% 30.12 in 10.0 miles South 4.6 mph - N/A   Clear
9:53 PM 39.9°F 32.0°F 73% 30.11 in 10.0 miles SSE 3.5 mph - N/A   Clear
10:53 PM 41.0°F 32.0°F 70% 30.08 in 10.0 miles SE 4.6 mph - N/A   Clear
11:53 PM 39.9°F 33.1°F 77% 30.05 in 10.0 miles Calm Calm - N/A   Scattered Clouds
Moon Phase
Dec. 24 Dec. 28 Jan. 04 Jan. 11 Jan. 18
Sunrise:07:55 AM (PST) Moon Rise:02:00 PM (PST)12/24
Sunset:04:24 PM (PST) Moon Set:04:34 AM (PST)12/24

Copyright © 2014 The Weather Underground, Inc.